Flag for U.S.A. Weather past 2 weeks in Lewiston, Idaho, U.S.A.

Now
70 °F

Sunny.


Feels Like: 77 °F
Forecast: 56 / 87 °F
Wind: 3 mph from North

Location: Lewiston-Nez Perce County Airport

Current Time: Sep 20, 2014 at 11:52:01 AM

Latest Report: Sep 20, 2014 at 10:56 AM


Visibility: 10 mi

Pressure: 30.12 "Hg

Humidity: 47%

Dew point: 49 °F

Location of LewistonLocation

Historic Weather in Lewiston — Graph

°F

Lewiston temperature yesterday

Maximum temperature yesterday: 80 °F (at 3:56 PM)
Minimum temperature yesterday: 62 °F (at 5:56 AM)
Average temperature yesterday: 71 °F

Past Weeks' High & Low Weather Summary

 TemperatureHumidityPressure
High93 °F (Sep 16, 3:56 PM)72% (Sep 20, 4:56 AM)30.40 "Hg (Sep 20, 4:56 AM)
Low42 °F (Sep 11, 5:56 AM)10% (Sep 12, 3:56 PM)29.58 "Hg (Sep 18, 12:56 AM)
Average68 °F33%29.94 "Hg
* Reported Sep 5 5:56 AM — Sep 20 5:56 AM, Lewiston, Weather by CustomWeather, © 2014

Note: Actual official high and low records may vary slightly from our data, if they occured in-between our weather recording intervals... More about our weather records

Advertising

Lewiston weather history for previous 24 hours

 ConditionsComfort  
Time TempWeatherWind HumidityBarometerVisibility
5:56 AM
Sep 20
58 °FClear.5 mph67%30.11 "Hg10 mi
4:56 AM56 °FClear.5 mph72%30.10 "Hg10 mi
3:56 AM58 °FClear.3 mph65%30.09 "Hg10 mi
2:56 AM60 °FClear.3 mph60%30.08 "Hg10 mi
1:56 AM63 °FClear.6 mph54%30.07 "Hg10 mi
12:56 AM61 °FClear.6 mph58%30.07 "Hg10 mi
11:56 PM
Sep 19
63 °FClear.No wind54%30.05 "Hg10 mi
10:56 PM66 °FClear.3 mph49%30.04 "Hg10 mi
9:56 PM67 °FClear.3 mph47%30.03 "Hg10 mi
8:56 PM69 °FClear.6 mph44%30.02 "Hg10 mi
7:56 PM74 °FClear.3 mph40%30.00 "Hg10 mi
6:56 PM77 °FSunny.No wind35%29.98 "Hg10 mi
5:56 PM80 °FSunny.5 mph31%29.98 "Hg10 mi
4:56 PM79 °FSunny.No wind34%29.98 "Hg10 mi
3:56 PM80 °FSunny.3 mph31%29.99 "Hg10 mi
2:56 PM79 °FSunny.5 mph32%30.00 "Hg10 mi
1:56 PM79 °FSunny.5 mph32%30.00 "Hg10 mi
12:56 PM79 °FSunny.9 mph32%30.00 "Hg10 mi
11:56 AM78 °FSunny.9 mph35%30.01 "Hg10 mi
Weather by CustomWeather, © 2014

See weather overviewHow to use our weather pages